| time (UTC) | temp F | wind direction | speed knots | gust knots | rain 1hr in | rain 24hr in | rain mn in | humidity % | barometer mb |
| 20260506222320 | 53 | 249 | 3.5 | 5.2 | 0.00 | 0.15 | 0.15 | 49 | 1015.6 |
| 20260506221818 | 53 | 234 | 3.5 | 4.3 | 0.00 | 0.15 | 0.15 | 55 | 1015.6 |
| 20260506221316 | 53 | 247 | 5.2 | 7.0 | 0.00 | 0.15 | 0.15 | 49 | 1015.8 |
| 20260506220813 | 53 | 251 | 6.1 | 7.0 | 0.00 | 0.15 | 0.15 | 51 | 1015.8 |
| 20260506220308 | 54 | 238 | 2.6 | 4.3 | 0.00 | 0.15 | 0.15 | 52 | 1015.6 |
| 20260506215805 | 54 | 244 | 3.5 | 4.3 | 0.00 | 0.15 | 0.15 | 46 | 1015.7 |
| 20260506215301 | 54 | 246 | 2.6 | 6.1 | 0.00 | 0.15 | 0.15 | 51 | 1015.8 |
| 20260506214756 | 54 | 245 | 4.3 | 5.2 | 0.00 | 0.15 | 0.15 | 48 | 1015.6 |
| 20260506214254 | 54 | 245 | 3.5 | 5.2 | 0.00 | 0.15 | 0.15 | 47 | 1015.7 |
| 20260506213752 | 53 | 242 | 3.5 | 5.2 | 0.00 | 0.15 | 0.15 | 49 | 1015.7 |
| 20260506213249 | 54 | 242 | 4.3 | 7.0 | 0.00 | 0.15 | 0.15 | 49 | 1015.5 |
| 20260506212746 | 54 | 262 | 2.6 | 4.3 | 0.00 | 0.15 | 0.15 | 47 | 1015.7 |
| 20260506212242 | 54 | 268 | 4.3 | 6.1 | 0.00 | 0.15 | 0.15 | 51 | 1015.6 |
| 20260506211737 | 54 | 249 | 3.5 | 5.2 | 0.00 | 0.15 | 0.15 | 49 | 1015.7 |
| 20260506211234 | 54 | 274 | 4.3 | 6.1 | 0.00 | 0.15 | 0.15 | 45 | 1015.6 |
| 20260506210731 | 54 | 313 | 1.7 | 4.3 | 0.00 | 0.15 | 0.15 | 48 | 1015.5 |
| 20260506210228 | 54 | 342 | 3.5 | 5.2 | 0.00 | 0.15 | 0.15 | 46 | 1015.6 |
| 20260506205725 | 54 | 299 | 3.5 | 4.3 | 0.00 | 0.15 | 0.15 | 45 | 1015.5 |
| 20260506205220 | 54 | 251 | 2.6 | 4.3 | 0.00 | 0.15 | 0.15 | 45 | 1015.4 |
| 20260506204717 | 54 | 270 | 2.6 | 4.3 | 0.00 | 0.15 | 0.15 | 48 | 1015.5 |
| 20260506204214 | 54 | 270 | 4.3 | 5.2 | 0.00 | 0.15 | 0.15 | 46 | 1015.6 |
| 20260506203712 | 54 | 254 | 5.2 | 7.8 | 0.00 | 0.15 | 0.15 | 43 | 1015.5 |
| 20260506203209 | 54 | 285 | 2.6 | 4.3 | 0.00 | 0.15 | 0.15 | 44 | 1015.4 |
| 20260506202707 | 54 | 318 | 2.6 | 8.7 | 0.00 | 0.15 | 0.15 | 45 | 1015.5 |
| 20260506202203 | 54 | 257 | 3.5 | 6.1 | 0.00 | 0.15 | 0.15 | 49 | 1015.5 |
| 20260506201700 | 55 | 267 | 6.1 | 7.0 | 0.00 | 0.15 | 0.15 | 43 | 1015.4 |
| 20260506201156 | 56 | 325 | 3.5 | 5.2 | 0.00 | 0.15 | 0.15 | 44 | 1015.4 |
| 20260506200653 | 55 | 255 | 1.7 | 2.6 | 0.00 | 0.15 | 0.15 | 44 | 1015.5 |
| 20260506200150 | 54 | 259 | 1.7 | 7.0 | 0.00 | 0.15 | 0.15 | 49 | 1015.5 |
| 20260506195647 | 54 | 306 | 4.3 | 7.0 | 0.00 | 0.15 | 0.15 | 45 | 1015.4 |
| 20260506195143 | 55 | 267 | 4.3 | 7.0 | 0.00 | 0.15 | 0.15 | 46 | 1015.5 |
| 20260506194641 | 55 | 293 | 1.7 | 4.3 | 0.00 | 0.15 | 0.15 | 45 | 1015.4 |
| 20260506194137 | 54 | 290 | 3.5 | 6.1 | 0.00 | 0.15 | 0.15 | 45 | 1015.2 |
| 20260506193635 | 54 | 269 | 1.7 | 5.2 | 0.00 | 0.15 | 0.15 | 46 | 1015.5 |
| 20260506193132 | 55 | 248 | 4.3 | 7.0 | 0.00 | 0.15 | 0.15 | 46 | 1015.6 |
| 20260506192628 | 55 | 315 | 3.5 | 7.0 | 0.00 | 0.15 | 0.15 | 46 | 1015.6 |
| 20260506192124 | 55 | 246 | 3.5 | 7.0 | 0.00 | 0.15 | 0.15 | 45 | 1015.6 |
| 20260506191621 | 54 | 250 | 4.3 | 6.1 | 0.00 | 0.15 | 0.15 | 49 | 1015.7 |
| 20260506191117 | 55 | 256 | 8.7 | 9.6 | 0.00 | 0.15 | 0.15 | 46 | 1015.6 |
| 20260506190615 | 55 | 259 | 4.3 | 7.8 | 0.00 | 0.15 | 0.15 | 45 | 1015.5 |
| 20260506190111 | 55 | 252 | 7.0 | 8.7 | 0.00 | 0.15 | 0.15 | 47 | 1015.5 |
| 20260506185609 | 55 | 20 | 7.8 | 9.6 | 0.00 | 0.15 | 0.15 | 46 | 1015.4 |
| 20260506185105 | 55 | 258 | 7.0 | 12.2 | 0.00 | 0.15 | 0.15 | 46 | 1015.6 |
| 20260506184602 | 55 | 230 | 1.7 | 6.1 | 0.00 | 0.15 | 0.15 | 44 | 1015.4 |
| 20260506184100 | 55 | 307 | 5.2 | 7.8 | 0.00 | 0.15 | 0.15 | 44 | 1015.2 |
| 20260506183555 | 55 | 283 | 3.5 | 7.8 | 0.00 | 0.15 | 0.15 | 49 | 1015.4 |
| 20260506183052 | 56 | 252 | 2.6 | 4.3 | 0.00 | 0.15 | 0.15 | 48 | 1015.2 |
| 20260506182550 | 55 | 225 | 2.6 | 6.1 | 0.00 | 0.15 | 0.15 | 47 | 1015.2 |
| 20260506182047 | 56 | 261 | 4.3 | 8.7 | 0.00 | 0.15 | 0.15 | 44 | 1015.0 |
| 20260506181545 | 56 | 317 | 5.2 | 7.0 | 0.00 | 0.15 | 0.15 | 45 | 1015.2 |
| 20260506181041 | 56 | 236 | 3.5 | 5.2 | 0.00 | 0.15 | 0.15 | 44 | 1014.9 |
| 20260506180538 | 56 | 246 | 4.3 | 6.1 | 0.00 | 0.15 | 0.15 | 45 | 1015.1 |
| 20260506180034 | 56 | 337 | 2.6 | 11.3 | 0.00 | 0.15 | 0.15 | 49 | 1015.1 |
| 20260506175531 | 56 | 235 | 4.3 | 7.8 | 0.00 | 0.15 | 0.15 | 48 | 1014.9 |
| 20260506175027 | 55 | 258 | 6.1 | 7.8 | 0.00 | 0.15 | 0.15 | 54 | 1015.1 |
| 20260506174526 | 56 | 275 | 9.6 | 12.2 | 0.00 | 0.15 | 0.15 | 47 | 1015.0 |
| 20260506174022 | 55 | 340 | 2.6 | 6.1 | 0.00 | 0.15 | 0.15 | 49 | 1015.1 |
| 20260506173520 | 56 | 229 | 1.7 | 5.2 | 0.00 | 0.15 | 0.15 | 56 | 1015.2 |
| 20260506173016 | 55 | 235 | 6.1 | 7.8 | 0.00 | 0.15 | 0.15 | 48 | 1015.2 |
| 20260506172514 | 55 | 255 | 7.0 | 7.8 | 0.00 | 0.15 | 0.15 | 48 | 1015.2 |
| 20260506172010 | 55 | 246 | 7.8 | 9.6 | 0.00 | 0.15 | 0.15 | 50 | 1015.2 |
| 20260506171507 | 55 | 266 | 2.6 | 2.6 | 0.00 | 0.15 | 0.15 | 50 | 1015.5 |
| 20260506171005 | 54 | 331 | 4.3 | 9.6 | 0.00 | 0.15 | 0.15 | 50 | 1015.5 |
| 20260506170502 | 54 | 291 | 8.7 | 12.2 | 0.00 | 0.15 | 0.15 | 50 | 1015.6 |
| 20260506170000 | 57 | 245 | 7.0 | 9.6 | 0.00 | 0.15 | 0.15 | 50 | 1015.6 |
| 20260506165458 | 56 | 256 | 5.2 | 8.7 | 0.00 | 0.15 | 0.15 | 54 | 1015.6 |
| 20260506164954 | 56 | 247 | 3.5 | 6.1 | 0.00 | 0.15 | 0.15 | 50 | 1015.6 |
| 20260506164450 | 55 | 248 | 3.5 | 7.0 | 0.00 | 0.15 | 0.15 | 51 | 1015.8 |
| 20260506163948 | 55 | 298 | 3.5 | 7.8 | 0.00 | 0.15 | 0.15 | 50 | 1015.7 |
| 20260506163443 | 55 | 38 | 2.6 | 5.2 | 0.00 | 0.15 | 0.15 | 52 | 1015.6 |
| 20260506162938 | 55 | 247 | 3.5 | 9.6 | 0.00 | 0.15 | 0.15 | 53 | 1015.7 |
| 20260506162436 | 55 | 291 | 3.5 | 8.7 | 0.00 | 0.15 | 0.15 | 47 | 1015.6 |
| 20260506161933 | 55 | 260 | 2.6 | 8.7 | 0.00 | 0.15 | 0.15 | 55 | 1015.5 |
| 20260506161432 | 55 | 273 | 1.7 | 7.8 | 0.00 | 0.15 | 0.15 | 55 | 1015.5 |
| 20260506160929 | 55 | 57 | 4.3 | 7.8 | 0.00 | 0.15 | 0.15 | 49 | 1015.7 |
| 20260506160426 | 55 | 348 | 1.7 | 7.0 | 0.00 | 0.15 | 0.15 | 50 | 1015.5 |
| 20260506155923 | 56 | 230 | 2.6 | 5.2 | 0.00 | 0.15 | 0.15 | 50 | 1015.6 |
| 20260506155420 | 55 | 349 | 0.9 | 5.2 | 0.00 | 0.15 | 0.15 | 49 | 1015.4 |
| 20260506153542 | 55 | 301 | 2.6 | 6.1 | 0.00 | 0.15 | 0.15 | 48 | 1015.4 |
| 20260506153040 | 55 | 292 | 4.3 | 7.8 | 0.00 | 0.15 | 0.15 | 49 | 1015.0 |
| 20260506152537 | 55 | 319 | 2.6 | 6.1 | 0.00 | 0.15 | 0.15 | 46 | 1015.1 |
| 20260506152035 | 55 | 325 | 1.7 | 6.1 | 0.00 | 0.15 | 0.15 | 48 | 1015.1 |
| 20260506151532 | 55 | 69 | 0.9 | 5.2 | 0.00 | 0.15 | 0.15 | 46 | 1015.4 |
| 20260506151029 | 54 | 336 | 2.6 | 4.3 | 0.00 | 0.15 | 0.15 | 51 | 1015.2 |
| 20260506150526 | 53 | 196 | 2.6 | 7.0 | 0.00 | 0.15 | 0.15 | 48 | 1015.0 |
| 20260506150023 | 54 | 267 | 4.3 | 6.1 | 0.00 | 0.15 | 0.15 | 46 | 1014.9 |
| 20260506145519 | 54 | 245 | 3.5 | 5.2 | 0.00 | 0.15 | 0.15 | 49 | 1014.7 |
| 20260506145017 | 55 | 302 | 2.6 | 7.0 | 0.00 | 0.15 | 0.15 | 50 | 1014.8 |
| 20260506144513 | 54 | 350 | 1.7 | 7.0 | 0.00 | 0.15 | 0.15 | 54 | 1014.8 |
| 20260506144011 | 54 | 310 | 2.6 | 5.2 | 0.00 | 0.15 | 0.15 | 51 | 1014.6 |
| 20260506143508 | 53 | 259 | 0.9 | 2.6 | 0.00 | 0.15 | 0.15 | 54 | 1014.7 |
| 20260506143007 | 53 | 204 | 0.9 | 5.2 | 0.00 | 0.15 | 0.15 | 56 | 1014.9 |
| 20260506142504 | 53 | 331 | 4.3 | 7.0 | 0.00 | 0.15 | 0.15 | 56 | 1014.7 |
| 20260506142002 | 53 | 335 | 5.2 | 7.0 | 0.00 | 0.15 | 0.15 | 58 | 1014.6 |
| 20260506141459 | 53 | 74 | 1.7 | 6.1 | 0.00 | 0.15 | 0.15 | 58 | 1014.6 |
| 20260506140958 | 53 | 312 | 2.6 | 5.2 | 0.00 | 0.15 | 0.15 | 58 | 1014.5 |
| 20260506140454 | 53 | 324 | 2.6 | 6.1 | 0.00 | 0.15 | 0.15 | 58 | 1014.5 |
| 20260506135951 | 53 | 348 | 4.3 | 6.1 | 0.00 | 0.15 | 0.15 | 58 | 1014.6 |
| 20260506135449 | 53 | 19 | 2.6 | 5.2 | 0.00 | 0.15 | 0.15 | 61 | 1014.4 |
| 20260506134944 | 53 | 306 | 0.9 | 2.6 | 0.00 | 0.15 | 0.15 | 61 | 1014.4 |
| 20260506134440 | 52 | 205 | 0.9 | 1.7 | 0.00 | 0.15 | 0.15 | 62 | 1014.5 |
| 20260506133937 | 52 | 336 | 1.7 | 4.3 | 0.00 | 0.15 | 0.15 | 60 | 1014.4 |
| 20260506133435 | 52 | 243 | 0.9 | 2.6 | 0.00 | 0.15 | 0.15 | 63 | 1014.4 |
| 20260506132931 | 52 | 316 | 3.5 | 4.3 | 0.00 | 0.15 | 0.15 | 62 | 1014.3 |
| 20260506132428 | 52 | 257 | 1.7 | 2.6 | 0.00 | 0.15 | 0.15 | 67 | 1014.2 |
| 20260506131926 | 52 | 236 | 1.7 | 4.3 | 0.00 | 0.15 | 0.15 | 66 | 1014.0 |
| 20260506131422 | 51 | 9 | 0.9 | 4.3 | 0.00 | 0.15 | 0.15 | 70 | 1014.0 |
| 20260506130919 | 50 | 276 | 0.9 | 4.3 | 0.00 | 0.15 | 0.15 | 70 | 1013.9 |
| 20260506130416 | 50 | 252 | 0.9 | 5.2 | 0.00 | 0.15 | 0.15 | 75 | 1013.9 |
| 20260506125914 | 50 | 200 | 0.0 | 2.6 | 0.00 | 0.15 | 0.15 | 74 | 1014.0 |
| 20260506125412 | 49 | 232 | 0.9 | 4.3 | 0.00 | 0.15 | 0.15 | 75 | 1013.8 |
| 20260506124910 | 49 | 8 | 2.6 | 4.3 | 0.00 | 0.15 | 0.15 | 75 | 1013.9 |
| 20260506124407 | 49 | 253 | 0.9 | 5.2 | 0.00 | 0.15 | 0.15 | 80 | 1013.8 |
| 20260506123905 | 47 | 286 | 1.7 | 5.2 | 0.00 | 0.15 | 0.15 | 82 | 1013.8 |
| 20260506123403 | 47 | 284 | 1.7 | 4.3 | 0.00 | 0.15 | 0.15 | 82 | 1013.7 |
| 20260506122900 | 48 | 250 | 0.9 | 0.9 | 0.00 | 0.15 | 0.15 | 87 | 1013.6 |
| 20260506122356 | 46 | 233 | 0.0 | 1.7 | 0.00 | 0.15 | 0.15 | 89 | 1013.6 |
| 20260506121855 | 46 | 258 | 0.9 | 1.7 | 0.00 | 0.15 | 0.15 | 90 | 1013.5 |
| 20260506121351 | 46 | 269 | 1.7 | 1.7 | 0.00 | 0.15 | 0.15 | 91 | 1013.4 |
| 20260506120848 | 46 | 246 | 0.9 | 2.6 | 0.00 | 0.15 | 0.15 | 91 | 1013.3 |
| 20260506120346 | 45 | 247 | 0.9 | 1.7 | 0.00 | 0.15 | 0.15 | 93 | 1013.1 |
| 20260506115843 | 45 | 241 | 1.7 | 2.6 | 0.00 | 0.15 | 0.15 | 93 | 1013.3 |
| 20260506115341 | 45 | 249 | 1.7 | 2.6 | 0.00 | 0.15 | 0.15 | 94 | 1013.2 |
| 20260506114839 | 45 | 250 | 0.9 | 1.7 | 0.00 | 0.15 | 0.15 | 95 | 1013.2 |
| 20260506114336 | 45 | 239 | 1.7 | 1.7 | 0.00 | 0.15 | 0.15 | 95 | 1013.3 |
| 20260506113835 | 45 | 246 | 2.6 | 2.6 | 0.00 | 0.15 | 0.15 | 95 | 1012.9 |
| 20260506113332 | 45 | 240 | 2.6 | 2.6 | 0.00 | 0.15 | 0.15 | 95 | 1012.9 |
| 20260506112829 | 45 | 240 | 1.7 | 4.3 | 0.00 | 0.15 | 0.15 | 95 | 1013.0 |
| 20260506112326 | 45 | 235 | 1.7 | 2.6 | 0.00 | 0.15 | 0.15 | 95 | 1013.0 |
| 20260506111823 | 44 | 234 | 2.6 | 2.6 | 0.00 | 0.15 | 0.15 | 96 | 1012.9 |
| 20260506111322 | 44 | 239 | 2.6 | 2.6 | 0.00 | 0.15 | 0.15 | 96 | 1012.8 |
| 20260506110819 | 44 | 230 | 1.7 | 2.6 | 0.00 | 0.15 | 0.15 | 96 | 1012.9 |
| 20260506110315 | 44 | 237 | 2.6 | 2.6 | 0.00 | 0.15 | 0.15 | 96 | 1012.8 |
| 20260506105812 | 44 | 247 | 1.7 | 2.6 | 0.00 | 0.15 | 0.15 | 95 | 1012.3 |
| 20260506105309 | 44 | 234 | 2.6 | 2.6 | 0.00 | 0.15 | 0.15 | 95 | 1012.6 |
| 20260506104806 | 44 | 248 | 1.7 | 1.7 | 0.00 | 0.15 | 0.15 | 96 | 1012.2 |
| 20260506104304 | 44 | 238 | 1.7 | 1.7 | 0.00 | 0.15 | 0.15 | 96 | 1012.1 |
| 20260506103801 | 44 | 234 | 1.7 | 2.6 | 0.00 | 0.15 | 0.15 | 96 | 1011.9 |
| 20260506103259 | 44 | 250 | 1.7 | 1.7 | 0.00 | 0.15 | 0.15 | 96 | 1012.0 |
| 20260506102756 | 44 | 242 | 0.9 | 1.7 | 0.00 | 0.15 | 0.15 | 96 | 1011.8 |
| 20260506102254 | 44 | 247 | 0.9 | 1.7 | 0.00 | 0.15 | 0.15 | 96 | 1011.8 |
| 20260506101751 | 44 | 241 | 0.9 | 2.6 | 0.00 | 0.15 | 0.15 | 96 | 1011.9 |
| 20260506101247 | 44 | 255 | 1.7 | 2.6 | 0.00 | 0.15 | 0.15 | 95 | 1011.8 |
| 20260506100745 | 44 | 240 | 2.6 | 4.3 | 0.00 | 0.15 | 0.15 | 96 | 1012.0 |
| 20260506100243 | 44 | 265 | 2.6 | 4.3 | 0.00 | 0.15 | 0.15 | 96 | 1012.1 |
| 20260506095741 | 44 | 244 | 1.7 | 2.6 | 0.00 | 0.15 | 0.15 | 97 | 1012.0 |
| 20260506095238 | 44 | 261 | 3.5 | 4.3 | 0.00 | 0.15 | 0.15 | 96 | 1011.8 |
| 20260506094734 | 44 | 238 | 2.6 | 4.3 | 0.00 | 0.15 | 0.15 | 96 | 1011.9 |
| 20260506094233 | 44 | 241 | 2.6 | 4.3 | 0.00 | 0.15 | 0.15 | 96 | 1012.0 |
| 20260506093731 | 44 | 237 | 2.6 | 2.6 | 0.00 | 0.15 | 0.15 | 96 | 1011.8 |
| 20260506093228 | 44 | 236 | 1.7 | 1.7 | 0.00 | 0.15 | 0.15 | 96 | 1011.4 |
| 20260506092726 | 44 | 219 | 1.7 | 1.7 | 0.00 | 0.15 | 0.15 | 96 | 1011.5 |
| 20260506092223 | 44 | 229 | 0.9 | 0.9 | 0.00 | 0.15 | 0.15 | 96 | 1011.6 |
| 20260506091721 | 44 | 215 | 1.7 | 1.7 | 0.00 | 0.15 | 0.15 | 96 | 1011.6 |
| 20260506091218 | 44 | 232 | 1.7 | 2.6 | 0.00 | 0.15 | 0.15 | 96 | 1011.9 |
| 20260506090716 | 44 | 226 | 1.7 | 2.6 | 0.00 | 0.15 | 0.15 | 96 | 1012.1 |
| 20260506090212 | 44 | 235 | 1.7 | 2.6 | 0.00 | 0.15 | 0.15 | 96 | 1012.0 |
| 20260506085709 | 44 | 234 | 1.7 | 1.7 | 0.00 | 0.15 | 0.15 | 96 | 1012.1 |
| 20260506085205 | 44 | 227 | 0.9 | 1.7 | 0.00 | 0.15 | 0.15 | 96 | 1011.6 |
| 20260506084702 | 44 | 217 | 1.7 | 1.7 | 0.00 | 0.15 | 0.15 | 96 | 1012.0 |
| 20260506084158 | 44 | 249 | 1.7 | 2.6 | 0.00 | 0.15 | 0.15 | 96 | 1011.9 |
| 20260506083655 | 44 | 217 | 0.9 | 1.7 | 0.00 | 0.15 | 0.15 | 96 | 1011.9 |
| 20260506083153 | 44 | 214 | 1.7 | 1.7 | 0.00 | 0.15 | 0.15 | 95 | 1011.8 |
| 20260506082650 | 44 | 212 | 2.6 | 2.6 | 0.07 | 0.15 | 0.15 | 95 | 1011.8 |
| 20260506082145 | 44 | 234 | 1.7 | 1.7 | 0.07 | 0.15 | 0.15 | 95 | 1011.8 |
| 20260506081643 | 44 | 224 | 0.9 | 0.9 | 0.00 | 0.14 | 0.14 | 96 | 1011.8 |
| 20260506081141 | 44 | 225 | 0.9 | 0.9 | 0.00 | 0.14 | 0.14 | 95 | 1011.4 |
| 20260506080638 | 44 | 216 | 1.7 | 1.7 | 0.00 | 0.14 | 0.14 | 96 | 1011.4 |
| 20260506080135 | 44 | 217 | 0.9 | 1.7 | 0.00 | 0.14 | 0.14 | 96 | 1011.6 |
| 20260506073119 | 44 | 252 | 2.6 | 2.6 | 0.00 | 0.14 | 0.14 | 95 | 1011.9 |
| 20260506072615 | 44 | 241 | 1.7 | 1.7 | 0.07 | 0.14 | 0.14 | 96 | 1011.9 |
| 20260506072114 | 44 | 239 | 2.6 | 4.3 | 0.07 | 0.14 | 0.14 | 96 | 1012.1 |
| 20260506071611 | 45 | 234 | 1.7 | 2.6 | 0.00 | 0.13 | 0.13 | 97 | 1012.2 |
| 20260506071108 | 45 | 245 | 2.6 | 2.6 | 0.00 | 0.13 | 0.13 | 97 | 1012.0 |
| 20260506070605 | 45 | 239 | 0.9 | 1.7 | 0.00 | 0.13 | 0.13 | 98 | 1011.9 |
| 20260506062039 | 46 | 246 | 0.9 | 1.7 | 0.07 | 0.09 | 0.09 | 98 | 1012.1 |
| 20260506061535 | 46 | 231 | 0.0 | 0.9 | 0.07 | 0.09 | 0.09 | 98 | 1012.3 |
| 20260506061033 | 46 | 235 | 0.0 | 0.0 | 0.00 | 0.08 | 0.08 | 98 | 1012.1 |
| 20260506060531 | 46 | 235 | 0.0 | 0.0 | 0.00 | 0.08 | 0.08 | 98 | 1012.2 |
| 20260506051000 | 46 | 239 | 0.0 | 0.0 | 0.07 | 0.07 | 0.07 | 98 | 1012.3 |
| 20260506050458 | 46 | 237 | 0.0 | 0.0 | 0.00 | 0.06 | 0.06 | 98 | 1012.1 |
| 20260506044948 | 46 | 331 | 0.9 | 0.9 | 0.07 | 0.05 | 0.05 | 98 | 1012.2 |
| 20260506044446 | 46 | 230 | 0.0 | 0.9 | 0.07 | 0.05 | 0.05 | 98 | 1012.0 |
| 20260506043943 | 46 | 245 | 0.9 | 0.9 | 0.07 | 0.04 | 0.04 | 98 | 1012.0 |
| 20260506043440 | 46 | 222 | 0.9 | 1.7 | 0.07 | 0.04 | 0.04 | 98 | 1012.0 |
| 20260506042938 | 46 | 226 | 1.7 | 2.6 | 0.07 | 0.02 | 0.02 | 98 | 1012.1 |
| 20260506042437 | 47 | 301 | 0.9 | 1.7 | 0.07 | 0.02 | 0.02 | 98 | 1012.0 |
| 20260506041935 | 47 | 254 | 0.0 | 0.9 | 0.00 | 0.01 | 0.01 | 98 | 1012.2 |
| 20260506041432 | 47 | 232 | 0.0 | 0.0 | 0.07 | 0.01 | 0.01 | 98 | 1012.0 |
| 20260506040929 | 47 | 253 | 0.9 | 1.7 | 0.00 | 0.00 | 0.00 | 98 | 1012.1 |
| 20260506040427 | 48 | 247 | 2.6 | 4.3 | 0.00 | 0.00 | 0.00 | 98 | 1011.9 |
| 20260506035923 | 48 | 233 | 0.9 | 1.7 | 0.00 | 0.32 | 0.32 | 99 | 1012.0 |
| 20260506035420 | 48 | 222 | 0.9 | 0.9 | 0.00 | 0.32 | 0.32 | 99 | 1011.9 |
| 20260506034917 | 48 | 226 | 0.9 | 1.7 | 0.00 | 0.32 | 0.32 | 99 | 1012.1 |
| 20260506034414 | 48 | 216 | 0.9 | 1.7 | 0.00 | 0.32 | 0.32 | 99 | 1011.9 |
| 20260506033911 | 48 | 216 | 0.9 | 1.7 | 0.00 | 0.32 | 0.32 | 99 | 1011.9 |
| 20260506033408 | 48 | 210 | 1.7 | 1.7 | 0.00 | 0.32 | 0.32 | 99 | 1011.7 |
| 20260506032905 | 48 | 216 | 0.9 | 1.7 | 0.00 | 0.32 | 0.32 | 99 | 1011.9 |
| 20260506032402 | 48 | 216 | 1.7 | 1.7 | 0.00 | 0.32 | 0.32 | 98 | 1011.8 |
| 20260506031858 | 48 | 219 | 1.7 | 1.7 | 0.00 | 0.32 | 0.32 | 98 | 1012.1 |
| 20260506031356 | 48 | 214 | 1.7 | 1.7 | 0.07 | 0.32 | 0.32 | 98 | 1011.7 |
| 20260506030854 | 48 | 212 | 0.9 | 1.7 | 0.07 | 0.32 | 0.32 | 98 | 1012.2 |
| 20260506030352 | 48 | 222 | 2.6 | 2.6 | 0.00 | 0.31 | 0.31 | 98 | 1012.2 |
| 20260506025848 | 48 | 219 | 1.7 | 2.6 | 0.00 | 0.31 | 0.31 | 98 | 1012.0 |
| 20260506025345 | 48 | 226 | 1.7 | 1.7 | 0.00 | 0.31 | 0.31 | 98 | 1012.1 |
| 20260506024842 | 48 | 212 | 0.9 | 0.9 | 0.00 | 0.31 | 0.31 | 98 | 1012.1 |
| 20260506024338 | 48 | 218 | 0.9 | 2.6 | 0.00 | 0.31 | 0.31 | 98 | 1012.1 |
| 20260506023835 | 48 | 215 | 1.7 | 1.7 | 0.00 | 0.31 | 0.31 | 98 | 1012.1 |
| 20260506023332 | 48 | 214 | 2.6 | 2.6 | 0.00 | 0.31 | 0.31 | 98 | 1012.1 |
| 20260506022828 | 48 | 225 | 1.7 | 1.7 | 0.00 | 0.31 | 0.31 | 98 | 1012.1 |
| 20260506022326 | 48 | 222 | 1.7 | 1.7 | 0.07 | 0.31 | 0.31 | 98 | 1012.1 |
| 20260506021824 | 48 | 225 | 0.9 | 1.7 | 0.07 | 0.31 | 0.31 | 98 | 1012.0 |
| 20260506021320 | 48 | 212 | 1.7 | 2.6 | 0.00 | 0.29 | 0.29 | 98 | 1012.1 |
| 20260506020817 | 48 | 211 | 1.7 | 1.7 | 0.00 | 0.29 | 0.29 | 98 | 1012.2 |
| 20260506020315 | 48 | 218 | 2.6 | 4.3 | 0.07 | 0.29 | 0.29 | 98 | 1012.3 |
| 20260506015813 | 48 | 232 | 2.6 | 4.3 | 0.07 | 0.29 | 0.29 | 98 | 1012.2 |
| 20260506015310 | 48 | 206 | 2.6 | 2.6 | 0.00 | 0.28 | 0.28 | 98 | 1012.0 |
| 20260506014806 | 48 | 214 | 2.6 | 4.3 | 0.07 | 0.28 | 0.28 | 98 | 1012.0 |
| 20260506014304 | 48 | 233 | 2.6 | 2.6 | 0.07 | 0.28 | 0.28 | 97 | 1012.0 |
| 20260506013800 | 48 | 217 | 1.7 | 2.6 | 0.00 | 0.27 | 0.27 | 97 | 1011.8 |
| 20260506013257 | 48 | 212 | 2.6 | 2.6 | 0.00 | 0.27 | 0.27 | 97 | 1011.7 |
| 20260506012754 | 48 | 228 | 2.6 | 2.6 | 0.00 | 0.27 | 0.27 | 97 | 1011.8 |
| 20260506012251 | 48 | 217 | 2.6 | 2.6 | 0.00 | 0.27 | 0.27 | 97 | 1011.4 |
| 20260506011748 | 48 | 211 | 2.6 | 4.3 | 0.00 | 0.27 | 0.27 | 97 | 1011.6 |
| 20260506011244 | 48 | 207 | 2.6 | 2.6 | 0.00 | 0.27 | 0.27 | 97 | 1011.6 |
| 20260506010743 | 48 | 227 | 2.6 | 2.6 | 0.07 | 0.27 | 0.27 | 97 | 1011.7 |
| 20260506010240 | 48 | 215 | 2.6 | 4.3 | 0.07 | 0.27 | 0.27 | 97 | 1011.4 |
| 20260506005737 | 48 | 216 | 1.7 | 2.6 | 0.00 | 0.26 | 0.26 | 97 | 1011.4 |
| 20260506005233 | 48 | 215 | 2.6 | 2.6 | 0.00 | 0.26 | 0.26 | 97 | 1011.4 |
| 20260506004729 | 48 | 232 | 1.7 | 2.6 | 0.00 | 0.26 | 0.26 | 97 | 1011.4 |
| 20260506004227 | 48 | 225 | 2.6 | 2.6 | 0.00 | 0.26 | 0.26 | 97 | 1011.4 |
| 20260506003723 | 48 | 213 | 0.9 | 2.6 | 0.00 | 0.26 | 0.26 | 96 | 1011.4 |
| 20260506003220 | 48 | 223 | 0.9 | 1.7 | 0.00 | 0.26 | 0.26 | 96 | 1011.4 |
| 20260506002715 | 48 | 230 | 1.7 | 1.7 | 0.00 | 0.26 | 0.26 | 96 | 1011.6 |
| 20260506002212 | 48 | 230 | 2.6 | 4.3 | 0.07 | 0.26 | 0.26 | 96 | 1011.4 |
| 20260506001707 | 48 | 223 | 2.6 | 4.3 | 0.00 | 0.25 | 0.25 | 96 | 1011.5 |
| 20260506001206 | 48 | 211 | 2.6 | 4.3 | 0.00 | 0.25 | 0.25 | 96 | 1011.5 |
| 20260506000702 | 48 | 226 | 2.6 | 4.3 | 0.07 | 0.25 | 0.25 | 96 | 1011.3 |
| 20260506000200 | 48 | 225 | 2.6 | 4.3 | 0.07 | 0.25 | 0.25 | 95 | 1011.5 |
| 20260505235657 | 48 | 211 | 2.6 | 4.3 | 0.00 | 0.24 | 0.24 | 95 | 1011.3 |
| 20260505235155 | 48 | 215 | 3.5 | 4.3 | 0.00 | 0.24 | 0.24 | 95 | 1011.3 |
| 20260505234651 | 48 | 216 | 3.5 | 4.3 | 0.00 | 0.24 | 0.24 | 95 | 1011.3 |
| 20260505234148 | 48 | 208 | 2.6 | 2.6 | 0.00 | 0.24 | 0.24 | 95 | 1011.3 |
| 20260505233645 | 49 | 235 | 3.5 | 4.3 | 0.00 | 0.24 | 0.24 | 94 | 1011.4 |
| 20260505233143 | 49 | 215 | 2.6 | 2.6 | 0.07 | 0.24 | 0.24 | 94 | 1011.2 |
| 20260505232640 | 49 | 237 | 2.6 | 2.6 | 0.07 | 0.24 | 0.24 | 94 | 1011.2 |
| 20260505232138 | 49 | 230 | 2.6 | 4.3 | 0.00 | 0.22 | 0.22 | 94 | 1011.2 |
| 20260505231634 | 49 | 229 | 3.5 | 4.3 | 0.00 | 0.22 | 0.22 | 93 | 1011.2 |
| 20260505231133 | 49 | 233 | 1.7 | 2.6 | 0.00 | 0.22 | 0.22 | 93 | 1011.4 |
| 20260505230631 | 49 | 214 | 1.7 | 1.7 | 0.07 | 0.22 | 0.22 | 92 | 1011.1 |
| 20260505230127 | 49 | 241 | 0.9 | 1.7 | 0.07 | 0.22 | 0.22 | 91 | 1011.0 |
| 20260505225623 | 49 | 234 | 0.9 | 1.7 | 0.00 | 0.21 | 0.21 | 92 | 1011.2 |
| 20260505225120 | 50 | 226 | 0.9 | 1.7 | 0.00 | 0.21 | 0.21 | 92 | 1011.1 |
| 20260505224616 | 49 | 209 | 2.6 | 2.6 | 0.07 | 0.21 | 0.21 | 91 | 1011.1 |
| 20260505224114 | 50 | 215 | 0.9 | 0.9 | 0.07 | 0.21 | 0.21 | 91 | 1011.0 |
| 20260505223611 | 50 | 220 | 0.9 | 1.7 | 0.00 | 0.20 | 0.20 | 91 | 1010.9 |
| 20260505223107 | 50 | 225 | 0.0 | 0.9 | 0.00 | 0.20 | 0.20 | 89 | 1011.1 |
| 20260505222603 | 50 | 211 | 2.6 | 2.6 | 0.07 | 0.20 | 0.20 | 89 | 1011.2 |